GW1454 Weather Reports


Display with metric or nautical units.
time (UTC)temp
F
wind
direction
speed
MPH
gust
MPH
rain 1hr
in
rain 24hr
in
rain mn
in
humidity
%
barometer
mb
20260509151045 65 251 0.0 6.0 0.00 0.00 0.00 80 1012.5
20260509150550 64 96 3.0 6.0 0.00 0.00 0.00 80 1012.5
20260509150051 64 103 1.0 5.0 0.00 0.00 0.00 82 1012.6
20260509145547 63 9 0.0 5.0 0.00 0.00 0.00 82 1012.5
20260509145046 63 109 1.0 6.0 0.00 0.00 0.00 83 1012.6
20260509144557 63 88 2.0 6.0 0.00 0.00 0.00 83 1012.5
20260509144044 62 94 0.0 4.0 0.00 0.00 0.00 83 1012.7
20260509143545 62 105 1.0 5.0 0.00 0.00 0.00 83 1012.5
20260509143107 62 90 1.0 5.0 0.00 0.00 0.00 83 1012.5
20260509142545 62 46 2.0 4.0 0.00 0.00 0.00 83 1012.8
20260509142044 62 13 2.0 6.0 0.00 0.00 0.00 82 1012.7
20260509141553 61 165 1.0 7.0 0.00 0.00 0.00 83 1012.8
20260509141048 61 331 1.0 7.0 0.00 0.00 0.00 82 1012.8
20260509140546 62 109 0.0 4.0 0.00 0.00 0.00 82 1012.8
20260509140103 62 253 0.0 5.0 0.00 0.00 0.00 82 1012.9
20260509135547 61 291 1.0 7.0 0.00 0.00 0.00 83 1013.1
20260509135048 61 103 2.0 7.0 0.00 0.00 0.00 83 1013.1
20260509134600 61 111 2.0 5.0 0.00 0.00 0.00 82 1013.0
20260509134047 60 0 1.0 4.0 0.00 0.00 0.00 83 1013.1
20260509133546 60 0 1.0 5.0 0.00 0.00 0.00 83 1013.3
20260509133110 59 0 0.0 6.0 0.00 0.00 0.00 84 1013.5
20260509132547 59 0 1.0 6.0 0.00 0.00 0.00 83 1013.7
20260509132045 59 105 1.0 3.0 0.00 0.00 0.00 83 1013.9
20260509131559 59 91 1.0 6.0 0.00 0.00 0.00 83 1014.0
20260509131044 59 96 2.0 6.0 0.00 0.00 0.00 84 1013.9
20260509130547 58 104 2.0 5.0 0.00 0.00 0.00 84 1014.0
20260509130115 58 0 0.0 5.0 0.00 0.00 0.00 84 1014.0
20260509125547 57 71 1.0 6.0 0.00 0.00 0.00 84 1014.0
20260509125046 57 65 0.0 6.0 0.00 0.00 0.00 84 1013.9
20260509124559 57 68 2.0 6.0 0.00 0.00 0.00 85 1014.0
20260509124045 56 107 2.0 4.0 0.00 0.00 0.00 84 1014.0
20260509123545 56 94 2.0 4.0 0.00 0.00 0.00 84 1013.9
20260509123055 56 0 1.0 4.0 0.00 0.00 0.00 85 1013.8
20260509122548 56 0 1.0 4.0 0.00 0.00 0.00 84 1013.7
20260509122046 55 55 1.0 2.0 0.00 0.00 0.00 86 1013.7
20260509121555 55 92 0.0 2.0 0.00 0.00 0.00 86 1013.7
20260509121049 54 0 0.0 5.0 0.00 0.00 0.00 87 1013.5
20260509120548 54 327 1.0 5.0 0.00 0.00 0.00 87 1013.7
20260509120100 54 88 0.0 1.0 0.00 0.00 0.00 87 1013.7
20260509115547 54 67 0.0 1.0 0.00 0.00 0.00 88 1013.7
20260509115048 54 0 0.0 0.0 0.00 0.00 0.00 89 1013.6
20260509114558 53 0 0.0 0.0 0.00 0.00 0.00 90 1013.5
20260509114046 52 0 0.0 0.0 0.00 0.00 0.00 91 1013.4
20260509113545 52 0 0.0 0.0 0.00 0.00 0.00 93 1013.3
20260509113054 50 0 0.0 0.0 0.00 0.00 0.00 93 1013.4
20260509112546 50 0 0.0 0.0 0.00 0.00 0.00 92 1013.5
20260509112047 49 0 0.0 0.0 0.00 0.00 0.00 93 1013.3
20260509111554 49 0 0.0 0.0 0.00 0.00 0.00 93 1013.3
20260509111045 48 0 0.0 0.0 0.00 0.00 0.00 93 1013.4
20260509110547 48 0 0.0 0.0 0.00 0.00 0.00 93 1013.4
20260509110053 48 0 0.0 0.0 0.00 0.00 0.00 93 1013.4
20260509105546 47 0 0.0 0.0 0.00 0.00 0.00 93 1013.4
20260509105045 47 0 0.0 0.0 0.00 0.00 0.00 93 1013.3
20260509104608 47 0 0.0 0.0 0.00 0.00 0.00 93 1013.1
20260509104046 47 0 0.0 0.0 0.00 0.00 0.00 92 1013.1
20260509103546 47 0 0.0 0.0 0.00 0.00 0.00 92 1013.1
20260509103058 47 0 0.0 0.0 0.00 0.00 0.00 92 1012.9
20260509102548 47 0 0.0 0.0 0.00 0.00 0.00 92 1012.8
20260509102045 46 0 0.0 0.0 0.00 0.00 0.00 92 1012.6
20260509101555 47 0 0.0 0.0 0.00 0.00 0.00 92 1012.6
20260509101046 46 0 0.0 0.0 0.00 0.00 0.00 91 1012.6
20260509100546 46 0 0.0 0.0 0.00 0.00 0.00 91 1012.6
20260509100050 47 0 0.0 0.0 0.00 0.00 0.00 91 1012.5
20260509095546 47 0 0.0 0.0 0.00 0.01 0.00 91 1012.5
20260509095047 47 0 0.0 0.0 0.00 0.01 0.00 91 1012.4
20260509094551 47 0 0.0 0.0 0.00 0.01 0.00 90 1012.5
20260509094045 47 0 0.0 0.0 0.00 0.01 0.00 90 1012.4
20260509093547 47 0 0.0 0.0 0.00 0.01 0.00 90 1012.4
20260509093051 47 0 0.0 0.0 0.00 0.01 0.00 90 1012.7
20260509092546 47 0 0.0 0.0 0.00 0.01 0.00 90 1012.7
20260509092048 47 0 0.0 0.0 0.00 0.01 0.00 90 1012.5
20260509091549 47 0 0.0 0.0 0.00 0.01 0.00 89 1012.7
20260509091048 48 0 0.0 0.0 0.00 0.01 0.00 90 1012.9
20260509090547 48 0 0.0 0.0 0.00 0.01 0.00 90 1012.9
20260509090057 48 0 0.0 0.0 0.00 0.01 0.00 89 1013.0
20260509085546 48 0 0.0 0.0 0.00 0.01 0.00 89 1013.0
20260509085045 48 0 0.0 0.0 0.00 0.01 0.00 89 1013.1
20260509084555 48 0 0.0 0.0 0.00 0.01 0.00 89 1013.1
20260509084047 48 0 0.0 0.0 0.00 0.01 0.00 89 1013.2
20260509083548 48 0 0.0 0.0 0.00 0.01 0.00 89 1013.1
20260509083054 48 0 0.0 0.0 0.00 0.01 0.00 88 1013.1
20260509082546 48 0 0.0 0.0 0.00 0.01 0.00 88 1013.0
20260509082047 48 0 0.0 0.0 0.00 0.01 0.00 88 1013.2
20260509081559 48 0 0.0 0.0 0.00 0.01 0.00 88 1013.2
20260509081047 48 0 0.0 0.0 0.00 0.01 0.00 87 1013.1
20260509080547 49 0 0.0 0.0 0.00 0.01 0.00 87 1013.1
20260509080054 49 0 0.0 0.0 0.00 0.01 0.00 87 1013.1
20260509075545 49 0 0.0 0.0 0.00 0.01 0.00 86 1013.2
20260509075048 49 0 0.0 0.0 0.00 0.01 0.00 86 1013.3
20260509074603 49 0 0.0 0.0 0.00 0.01 0.00 86 1013.2
20260509074046 49 0 0.0 0.0 0.00 0.01 0.00 86 1013.3
20260509073546 49 0 0.0 0.0 0.00 0.01 0.00 87 1013.3
20260509073059 49 0 0.0 0.0 0.00 0.01 0.00 87 1013.3
20260509072545 49 0 0.0 0.0 0.00 0.01 0.00 88 1013.4
20260509072047 49 0 0.0 0.0 0.00 0.01 0.00 87 1013.5
20260509071555 49 0 0.0 0.0 0.00 0.01 0.00 87 1013.5
20260509071045 49 0 0.0 0.0 0.00 0.01 0.00 87 1013.4
20260509070550 49 0 0.0 0.0 0.00 0.01 0.00 88 1013.4
20260509070105 49 0 0.0 0.0 0.00 0.01 0.00 88 1013.5
20260509065548 49 0 0.0 0.0 0.00 0.01 0.00 87 1013.6
20260509065048 49 0 0.0 0.0 0.00 0.01 0.00 87 1013.6
20260509064549 49 0 0.0 0.0 0.00 0.01 0.00 87 1013.6
20260509064050 49 0 0.0 0.0 0.00 0.01 0.00 86 1013.6
20260509063545 49 0 0.0 0.0 0.00 0.01 0.00 86 1013.6
20260509063107 49 0 0.0 0.0 0.00 0.01 0.00 85 1013.7
20260509062547 50 0 0.0 0.0 0.00 0.01 0.00 85 1013.7
20260509062044 50 0 0.0 0.0 0.00 0.01 0.00 85 1013.8
20260509061615 50 0 0.0 0.0 0.00 0.01 0.00 85 1013.9
20260509061048 50 0 0.0 0.0 0.00 0.01 0.00 85 1014.0
20260509060548 50 0 0.0 0.0 0.00 0.01 0.00 84 1014.2
20260509060105 51 0 0.0 0.0 0.00 0.01 0.00 84 1014.1
20260509055545 51 0 0.0 0.0 0.00 0.01 0.00 84 1014.2
20260509055046 51 0 0.0 0.0 0.00 0.01 0.00 83 1014.3
20260509054548 51 0 0.0 0.0 0.00 0.01 0.00 83 1014.3
20260509054048 51 0 0.0 0.0 0.00 0.01 0.00 82 1014.3
20260509053547 51 0 0.0 0.0 0.00 0.01 0.00 82 1014.3
20260509053050 51 0 0.0 0.0 0.00 0.01 0.00 82 1014.4
20260509052548 51 0 0.0 0.0 0.00 0.01 0.00 83 1014.5
20260509052044 51 0 0.0 0.0 0.00 0.01 0.00 83 1014.6
20260509051553 51 0 0.0 0.0 0.00 0.01 0.00 82 1014.9
20260509051045 51 0 0.0 0.0 0.00 0.01 0.00 82 1014.9
20260509050544 51 0 0.0 0.0 0.00 0.01 0.00 82 1014.9
20260509050051 51 0 0.0 1.0 0.00 0.01 0.00 82 1014.8
20260509045545 51 0 0.0 1.0 0.00 0.01 0.00 81 1014.9
20260509045047 51 0 0.0 1.0 0.00 0.01 0.00 83 1015.0
20260509044551 50 0 0.0 0.0 0.00 0.01 0.00 83 1015.0
20260509044049 50 0 0.0 0.0 0.00 0.01 0.00 82 1015.1
20260509043547 51 0 0.0 0.0 0.00 0.01 0.00 82 1015.0
20260509043052 51 0 0.0 0.0 0.00 0.01 0.00 82 1015.0
20260509042547 51 0 0.0 1.0 0.00 0.01 0.00 82 1015.0
20260509042046 51 0 0.0 1.0 0.00 0.01 0.00 81 1014.9
20260509041553 51 0 0.0 0.0 0.00 0.01 0.00 82 1014.8
20260509041046 51 0 0.0 0.0 0.00 0.01 0.00 82 1015.0
20260509040549 51 0 0.0 0.0 0.00 0.01 0.00 80 1014.9
20260509040052 51 0 0.0 0.0 0.00 0.01 0.00 79 1014.9
20260509035544 51 0 0.0 0.0 0.00 0.01 0.01 79 1015.0
20260509035047 51 0 0.0 0.0 0.00 0.01 0.01 79 1014.9
20260509034555 52 0 0.0 0.0 0.00 0.01 0.01 79 1015.0
20260509034046 52 0 0.0 0.0 0.00 0.01 0.01 80 1015.0
20260509033546 52 0 0.0 0.0 0.00 0.01 0.01 80 1014.9
20260509033056 52 0 0.0 0.0 0.00 0.01 0.01 80 1015.0
20260509032545 52 0 0.0 0.0 0.00 0.01 0.01 79 1014.8
20260509032047 52 0 0.0 0.0 0.00 0.01 0.01 80 1014.9
20260509031556 52 0 0.0 0.0 0.00 0.01 0.01 80 1014.7
20260509031045 52 0 0.0 0.0 0.00 0.01 0.01 78 1015.0
20260509030545 52 0 0.0 0.0 0.00 0.01 0.01 78 1015.0
20260509030056 52 0 0.0 0.0 0.00 0.01 0.01 78 1015.0
20260509025544 52 0 0.0 0.0 0.00 0.01 0.01 77 1015.1
20260509025047 52 0 0.0 0.0 0.00 0.01 0.01 78 1015.2
20260509024552 53 0 0.0 0.0 0.00 0.01 0.01 79 1015.2
20260509024045 53 0 0.0 0.0 0.00 0.01 0.01 78 1015.2
20260509023544 53 0 0.0 0.0 0.00 0.01 0.01 76 1015.2
20260509023100 53 0 0.0 0.0 0.00 0.01 0.01 77 1015.3
20260509022545 53 0 0.0 0.0 0.00 0.01 0.01 77 1015.3
20260509022047 53 0 0.0 0.0 0.00 0.01 0.01 75 1015.3
20260509021555 53 0 0.0 0.0 0.00 0.01 0.01 73 1015.3
20260509021046 53 0 0.0 0.0 0.00 0.01 0.01 71 1015.3
20260509020545 53 0 0.0 0.0 0.00 0.01 0.01 71 1015.4
20260509020057 53 0 0.0 0.0 0.00 0.01 0.01 73 1015.3
20260509015546 54 0 0.0 0.0 0.00 0.01 0.01 74 1015.3
20260509015047 54 0 0.0 0.0 0.00 0.01 0.01 76 1015.2
20260509014554 54 0 0.0 0.0 0.00 0.01 0.01 75 1015.2
20260509014049 54 0 0.0 0.0 0.00 0.01 0.01 75 1015.3
20260509013548 54 0 0.0 0.0 0.00 0.01 0.01 74 1015.2
20260509013055 54 0 0.0 0.0 0.00 0.01 0.01 72 1015.2
20260509012548 54 0 0.0 0.0 0.00 0.01 0.01 74 1015.2
20260509012048 54 0 0.0 0.0 0.00 0.01 0.01 73 1015.1
20260509011556 54 0 0.0 0.0 0.00 0.01 0.01 71 1015.0
20260509011045 54 0 0.0 0.0 0.00 0.01 0.01 72 1015.0
20260509010545 54 0 0.0 0.0 0.00 0.01 0.01 74 1014.9
20260509010059 54 0 0.0 0.0 0.00 0.01 0.01 73 1014.9
20260509005546 54 0 0.0 0.0 0.00 0.01 0.01 71 1014.8
20260509005045 55 0 0.0 0.0 0.00 0.01 0.01 70 1014.9
20260509004602 55 0 0.0 0.0 0.00 0.01 0.01 69 1014.7
20260509004044 56 0 0.0 0.0 0.00 0.01 0.01 68 1014.9
20260509003545 56 0 0.0 0.0 0.00 0.01 0.01 65 1014.7
20260509003049 57 0 0.0 0.0 0.00 0.01 0.01 66 1014.7
20260509002546 57 0 0.0 0.0 0.00 0.01 0.01 64 1014.7
20260509002051 58 0 0.0 0.0 0.00 0.01 0.01 63 1014.6
20260509001551 58 0 0.0 0.0 0.00 0.01 0.01 64 1014.4
20260509001045 59 0 0.0 0.0 0.00 0.01 0.01 63 1014.4
20260509000547 59 0 0.0 0.0 0.00 0.01 0.01 61 1014.4
20260509000051 60 0 0.0 0.0 0.00 0.01 0.01 59 1014.4
20260508235547 60 0 0.0 0.0 0.00 0.01 0.01 60 1014.3
20260508235048 61 0 0.0 0.0 0.00 0.01 0.01 57 1014.4
20260508234554 62 0 0.0 0.0 0.00 0.01 0.01 58 1014.5
20260508234047 62 0 0.0 0.0 0.00 0.01 0.01 54 1014.3
20260508233546 63 0 0.0 0.0 0.00 0.01 0.01 53 1014.5
20260508233055 63 0 0.0 0.0 0.00 0.01 0.01 56 1014.5
20260508232546 64 0 0.0 0.0 0.00 0.01 0.01 49 1014.5
20260508232047 65 0 0.0 0.0 0.00 0.01 0.01 47 1014.6
20260508231550 65 0 0.0 1.0 0.00 0.01 0.01 45 1014.6
20260508231046 66 129 0.0 4.0 0.00 0.01 0.01 46 1014.5
20260508230547 66 0 0.0 4.0 0.00 0.01 0.01 40 1014.6
20260508230049 66 254 1.0 4.0 0.00 0.01 0.01 40 1014.4
20260508225549 67 123 0.0 3.0 0.00 0.01 0.01 37 1014.6
20260508225045 68 113 0.0 4.0 0.00 0.01 0.01 37 1014.5
20260508224548 69 0 0.0 4.0 0.00 0.01 0.01 34 1014.5
20260508224047 69 95 2.0 4.0 0.00 0.01 0.01 34 1014.4
20260508223548 69 111 1.0 4.0 0.00 0.01 0.01 33 1014.4
20260508223051 68 0 0.0 6.0 0.00 0.01 0.01 34 1014.5
20260508222547 68 84 1.0 6.0 0.00 0.01 0.01 34 1014.5
20260508222046 68 0 0.0 3.0 0.00 0.01 0.01 34 1014.6
20260508221553 68 0 1.0 3.0 0.00 0.01 0.01 33 1014.5
20260508221046 69 105 1.0 6.0 0.00 0.01 0.01 32 1014.3
20260508220547 68 51 1.0 6.0 0.00 0.01 0.01 32 1014.3
20260508220051 68 292 2.0 6.0 0.00 0.01 0.01 32 1014.1
20260508215547 69 84 2.0 7.0 0.00 0.01 0.01 37 1014.2
20260508215047 69 103 2.0 7.0 0.00 0.01 0.01 35 1014.2
20260508214551 70 48 2.0 8.0 0.00 0.01 0.01 34 1014.4
20260508214046 69 38 3.0 8.0 0.00 0.01 0.01 35 1014.4
20260508213545 70 59 2.0 6.0 0.00 0.01 0.01 34 1014.4
20260508213046 70 216 2.0 7.0 0.00 0.01 0.01 37 1014.5
20260508212547 70 105 2.0 10.0 0.00 0.01 0.01 37 1014.5
20260508212046 69 310 3.0 10.0 0.00 0.01 0.01 36 1014.5
20260508211550 71 80 2.0 6.0 0.00 0.01 0.01 39 1014.4
20260508211045 71 110 2.0 6.0 0.00 0.01 0.01 36 1014.3
20260508210547 70 108 1.0 6.0 0.00 0.01 0.01 35 1014.4
20260508210047 70 103 1.0 4.0 0.00 0.01 0.01 38 1014.5
20260508205544 70 96 1.0 7.0 0.00 0.18 0.01 37 1014.5
20260508205045 69 304 1.0 8.0 0.00 0.18 0.01 35 1014.6
20260508204552 69 91 3.0 8.0 0.00 0.18 0.01 36 1014.6
20260508204049 70 323 1.0 8.0 0.00 0.18 0.01 37 1014.6
20260508203546 69 119 3.0 9.0 0.00 0.18 0.01 35 1014.6
20260508203105 70 69 2.0 9.0 0.00 0.18 0.01 36 1014.9
20260508202548 70 153 1.0 5.0 0.00 0.18 0.01 38 1015.1
20260508202046 70 0 0.0 5.0 0.00 0.18 0.01 37 1015.1
20260508201600 70 80 1.0 7.0 0.00 0.18 0.01 37 1015.2
20260508201047 70 14 2.0 7.0 0.00 0.18 0.01 38 1015.1
20260508200545 71 51 1.0 10.0 0.00 0.18 0.01 36 1015.1
20260508200056 69 285 1.0 10.0 0.00 0.18 0.01 38 1015.1
20260508195547 70 55 3.0 10.0 0.00 0.49 0.01 37 1015.2
20260508195052 70 107 3.0 7.0 0.00 0.49 0.01 38 1015.3
20260508194556 70 81 2.0 9.0 0.00 0.49 0.01 37 1015.2
20260508194047 70 294 1.0 9.0 0.00 0.49 0.01 39 1015.2
20260508193548 70 72 3.0 7.0 0.00 0.49 0.01 38 1015.3
20260508193056 69 18 2.0 4.0 0.00 0.49 0.01 36 1015.4
20260508192550 69 221 1.0 7.0 0.00 0.49 0.01 35 1015.5
20260508192048 70 205 2.0 9.0 0.00 0.49 0.01 34 1015.6
20260508191555 70 206 1.0 9.0 0.00 0.49 0.01 41 1015.8
20260508191045 69 105 3.0 6.0 0.00 0.49 0.01 36 1015.9
20260508190547 69 337 1.0 6.0 0.00 0.49 0.01 35 1015.8
20260508190050 69 152 2.0 6.0 0.00 0.49 0.01 33 1015.8
20260508185550 69 108 2.0 5.0 0.00 0.49 0.01 37 1016.0
20260508185047 69 0 1.0 9.0 0.00 0.49 0.01 42 1015.9
20260508184600 69 194 2.0 9.0 0.00 0.49 0.01 39 1016.0
20260508184048 69 148 3.0 9.0 0.00 0.49 0.01 40 1016.0
20260508183546 69 155 2.0 6.0 0.00 0.49 0.01 36 1016.0
20260508183055 69 38 1.0 6.0 0.00 0.49 0.01 38 1016.1
20260508182547 69 89 2.0 6.0 0.00 0.49 0.01 36 1016.1
20260508182048 69 81 1.0 7.0 0.00 0.49 0.01 36 1016.3
20260508181559 68 108 3.0 7.0 0.00 0.49 0.01 35 1016.3
20260508181047 68 147 1.0 6.0 0.00 0.49 0.01 34 1016.4
20260508180547 68 107 2.0 7.0 0.00 0.49 0.01 35 1016.6
20260508180053 68 157 2.0 7.0 0.00 0.49 0.01 35 1016.6
20260508175547 68 106 3.0 6.0 0.00 0.49 0.01 35 1016.7
20260508175045 68 299 2.0 5.0 0.00 0.49 0.01 32 1016.8
20260508174554 68 101 1.0 6.0 0.00 0.49 0.01 34 1016.8
20260508174049 67 90 3.0 10.0 0.00 0.49 0.01 35 1016.9
20260508173546 67 132 2.0 10.0 0.00 0.49 0.01 34 1017.0
20260508173051 67 165 3.0 9.0 0.00 0.49 0.01 34 1017.0
20260508172546 67 107 3.0 9.0 0.00 0.49 0.01 36 1017.0
20260508172045 66 175 2.0 7.0 0.00 0.49 0.01 37 1017.1
20260508171551 66 92 1.0 5.0 0.00 0.49 0.01 36 1017.1
20260508171045 66 261 2.0 4.0 0.00 0.49 0.01 34 1017.2
20260508170548 66 173 1.0 5.0 0.00 0.49 0.01 32 1017.1
20260508170049 66 171 3.0 7.0 0.00 0.49 0.01 32 1017.1
20260508165546 66 98 2.0 7.0 0.00 0.49 0.01 36 1017.2
20260508165048 65 204 2.0 6.0 0.00 0.49 0.01 33 1017.3
20260508164553 66 96 2.0 8.0 0.00 0.49 0.01 34 1017.4
20260508164048 65 243 3.0 8.0 0.00 0.49 0.01 34 1017.5
20260508163547 65 57 2.0 6.0 0.00 0.49 0.01 35 1017.6
20260508163054 66 267 1.0 7.0 0.00 0.49 0.01 35 1017.8
20260508162547 66 122 2.0 7.0 0.00 0.49 0.01 37 1017.9
20260508162049 66 184 1.0 5.0 0.00 0.49 0.01 39 1017.9
20260508161555 65 0 1.0 6.0 0.00 0.49 0.01 39 1018.0
20260508161047 65 229 1.0 7.0 0.00 0.49 0.01 40 1018.1
20260508160549 65 69 3.0 7.0 0.00 0.49 0.01 36 1018.1
20260508160058 65 226 1.0 4.0 0.00 0.49 0.01 39 1018.2
20260508155545 64 86 2.0 8.0 0.00 0.49 0.01 37 1018.2
20260508155045 65 80 3.0 8.0 0.00 0.49 0.01 42 1018.2
20260508154549 65 89 1.0 4.0 0.00 0.49 0.01 39 1018.3
20260508154045 64 153 1.0 3.0 0.00 0.49 0.01 42 1018.4
20260508153545 63 163 1.0 3.0 0.00 0.49 0.01 43 1018.5
20260508153056 63 92 1.0 5.0 0.00 0.49 0.01 43 1018.5
20260508152547 63 202 1.0 5.0 0.00 0.49 0.01 49 1018.5
20260508152048 63 309 1.0 3.0 0.00 0.49 0.01 45 1018.5
20260508151554 63 0 1.0 3.0 0.00 0.49 0.01 45 1018.7